User: anonymous   Login
Location: Raleigh
(35.7720°N, 78.6390°W)
Time: 05:53:43
(UTC-05:00)
Language:

JAS-2 - Orbit

View from above orbital plane
View from above orbital plane
View from above satellite
View from above satellite

Ground track
Ground track

The orbit data is extracted from the following two-line orbital elements,

1 24278U 96046B   14326.49280888 -.00000009  00000-0  28769-4 0  5230
2 24278 098.5177 318.5166 0349588 246.8024 283.2735 13.53037131902070
Epoch (UTC): 22 November 2014 11:49:38
Eccentricity: 0.0349588
inclination: 98.5177°
perigee height: 801 km
apogee height: 1321 km
right ascension of ascending node: 318.5166°
argument of perigee: 246.8024°
revolutions per day: 13.53037131
mean anomaly at epoch: 283.2735°
orbit number at epoch: 90207

The dashed part of the orbit path shows where the satellite is in the earth's shadow,  

DLR